Location: New Mesquite
(33.1168°N, 96.4336°W)
Time: 20:16:56
(UTC+00:00)

OPS-SAT - Pass Details

Date: 15 October 2022
Orbit: 486 x 504 km, 97.5° (Epoch: 05 December)

Event Time Altitude Azimuth Distance (km) Brightness Sun altitude
Rises 00:34:32 0° 9° (N) 2,624 ? -9.4°
Reaches altitude 10° 00:36:38 10° 8° (N) 1,732 ? -9.8°
Maximum altitude 00:40:22 77° 282° (WNW) 524 ? -10.6°
Drops below altitude 10° 00:44:03 10° 197° (SSW) 1,710 ? -11.4°
Sets 00:46:07 0° 196° (SSW) 2,586 ? -11.8°
